sat.trackr.live / text

‹ back to catalog

STARLINK-37945

NORAD 69669 · 2026-143W

PAYLOAD ACTIVE UNKNOWN

§ Identity

Operator
Country
US
Launch date
2026-06-21
Launch site
AFWTR
Launch vehicle
Mass (kg)
RCS (m²)

Purposes: comms

External: N2YO · Heavens-Above · Gunter

§ Orbital elements

Epoch: 2026-09-19T21:56:45.153600Z

Period
93.91 min
Inclination
97.2856°
Eccentricity
0.0001399
Mean motion
15.33451454 rev/d
Perigee alt
464.6 km
Apogee alt
466.5 km
Semi-major
6,843.7 km
B*
5.5350e-4
RAAN
306.1244°
Arg perigee
87.4998°
Mean anomaly
272.6404°
Rev number
1,505

§ Raw data

STARLINK-379451 69669U 26143W   26262.91441150  .00017840  00000+0  55350-3 0  99952 69669  97.2856 306.1244 0001399  87.4998 272.6404 15.33451454 15053

JSON: /api/v1/satellites/69669 · /tle

For live sub-satellite position, see the globe view (requires WebGL).

§ Visibility from observer

Set your observer location to see the next 7 days of passes ≥ 10°. The values pass through the URL so the page stays shareable.

No JS? Fill the form by hand. The geolocation button needs JavaScript.